Tracking 18987 objects as of 25-Feb-2018
HD Live streaming from Space Station
objects crossing your sky now

FENGYUN 1C DEB

Track FENGYUN 1C DEB now!
10-day predictions


NORAD ID: 29880
Int'l Code: 1999-025GA
Perigee: 766.5 km
Apogee: 1,138.4 km
Inclination: 98.2 °
Period: 104.0 minutes
Semi major axis: 7323 km
RCS: 0.0219 m2 (small)
Launch date: May 10, 1999
Source: People's Republic of China (PRC)
Launch site: Taiyaun Space Center, China (TSC)

Note: This is SATELLITE DEBRIS
aabbcc
Your satellite tracking list
Your tracking list is empty




NASA's NSSDC Master Catalog

Two Line Element Set (TLE):
1 29880U 99025GA  18055.62234023 +.00000550 +00000-0 +39933-3 0  9993
2 29880 098.1732 290.3682 0253944 085.7869 328.9557 13.85256388560648
Source of the keplerian elements: AFSPC